sat.trackr.live / text

‹ back to catalog

OPS 5712 (P/L 153)

NORAD 2874 · 1967-053H

PAYLOAD ACTIVE UNKNOWN

§ Identity

Operator
Country
US
Launch date
1967-05-31
Launch site
AFWTR
Launch vehicle
Mass (kg)
RCS (m²)
0.66

Purposes: military

External: N2YO · Heavens-Above · Gunter

§ Orbital elements

Epoch: 2026-09-14T18:39:59.095584Z

Period
103.09 min
Inclination
69.9724°
Eccentricity
0.0004569
Mean motion
13.96839107 rev/d
Perigee alt
901.4 km
Apogee alt
908.1 km
Semi-major
7,282.9 km
B*
4.0020e-5
RAAN
283.2743°
Arg perigee
71.6489°
Mean anomaly
288.5113°
Rev number
1,930

§ Raw data

OPS 5712 (P/L 153)1 02874U 67053H   26257.77776731  .00000002  00000+0  40020-4 0  99902 02874  69.9724 283.2743 0004569  71.6489 288.5113 13.96839107 19306

JSON: /api/v1/satellites/2874 · /tle

For live sub-satellite position, see the globe view (requires WebGL).

§ Visibility from observer

Set your observer location to see the next 7 days of passes ≥ 10°. The values pass through the URL so the page stays shareable.

No JS? Fill the form by hand. The geolocation button needs JavaScript.